map of UDI home
Great Circle Mapper logo
UDI - Airport
Location
City:  Uberlândia, Minas Gerais, Brazil
Name:Ten. Cel. Av. César Bombonato Airport
ICAO / IATA:SBUL / UDI

Details
Type:Airport (Aerodrome, Airfield)
Use:Public/Civil
Latitude:18°52'58"S (-18.882843)
Longitude:48°13'32"W (-48.225593)
Datum:WGS 1984
Elevation:3094 ft (943 m)
Variation:20.96°W (WMM2015 magnetic declination)
-0.11° annual change
Runways:1
Longest:6398 × 148 ft (1950 × 45 m), paved

Time
Time Zone:UTC-3 (DST-2)
Local Time:

Weather
METAR:SBUL 280500Z 05006KT CAVOK 19/14 Q1019
TAF:SBUL 272202Z 2800/2812 09005KT 9999 SCT035TN18/2805Z TX21/2811Z PROB30 2802/2806 4000 RA BR BKN009
RMK PHN

Related Locations
Nearby:
Farthest:MMD: 11950 mi / 19231 km
Minami Daito Jima, Okinawa, JP

Find:

   beyond  
but within

Other Information
Maps:
NOTAMs:
Links:
Sources:

  
flag of Brazil
flag of Minas Gerais
  

Sectional Chart

Flight Planning
at skyvector.com

Satellite Image

Google Maps Satellite View

 

Copyright © 2004-2015 Karl L. Swartz. All rights reserved.
The Great Circle Mapper name and logo are trademarks of the Great Circle Mapper.
All other trademarks mentioned herein belong to their respective owners.
Please see credits for attibutions and further copyright information.

  Follow gcmap on Facebook Follow gcmap on Twitter Follow gcmap on Google+

hCard Microformat

Geo Microformat